Location: *
(50.8512°N, 5.6907°E)
Time: 23:30:45
(UTC+00:00)

Cosmos 1605 Rocket - Pass Details

Date: 09 April 2020
Orbit: 946 x 1005 km, 82.9° (Epoch: 22 May)

Event Time Altitude Azimuth Distance (km) Brightness Sun altitude
Rises 22:20:24 0° 348° (NNW) 3,642 8.2 -28.7°
Reaches altitude 10° 22:22:54 10° 346° (NNW) 2,698 7.2 -28.9°
Maximum altitude 22:29:00 67° 266° (W) 1,046 4.1 -29.2°
Enters shadow 22:29:21 65° 245° (WSW) 1,056 4.0 -29.3°
